When you browse on this site, cookies collect data to enhance your experience and personalize the content and advertising you see.
Visit our Privacy Policy to learn more. By continuing to use the site, you agree to this use of cookies and data.
  • In Hungary
  • List of Countries
  • For 7 days
  • Water Temperature
  • Weather Map
  • News
  • Weather Widgets
  • user-avatar
    Login

    Hourly Weather Bogazkale

    Today, 22 November, Friday

    Time Temperature Precipitation Wind Pressure Humidity
    00:00 +5°C° 0 mm 0 mps 663 mmHg 33%
    01:00 +5°C° 0 mm 0 mps 662 mmHg 34%
    02:00 +4°C° 0 mm 0 mps 662 mmHg 34%
    03:00 +4°C° 0 mm 0 mps 662 mmHg 34%
    04:00 +4°C° 0 mm 0 mps 662 mmHg 35%
    05:00 +4°C° 0 mm 0 mps 662 mmHg 35%
    06:00 +5°C° 0 mm 0 mps 662 mmHg 34%
    07:00 +5°C° 0 mm 0 mps 662 mmHg 33%
    08:00 +6°C° 0 mm 0 mps 663 mmHg 31%
    09:00 +8°C° 0 mm 0 mps 663 mmHg 28%
    10:00 +9°C° 0 mm 0 mps 664 mmHg 25%
    11:00 +10°C° 0 mm 0 mps 664 mmHg 21%
    12:00 +11°C° 0 mm 0 mps 663 mmHg 20%
    13:00 +12°C° 0 mm 0 mps 663 mmHg 19%
    14:00 +13°C° 0 mm 1 mps 663 mmHg 19%
    15:00 +12°C° 0 mm 1 mps 662 mmHg 22%
    16:00 +9°C° 0 mm 0 mps 662 mmHg 25%
    17:00 +8°C° 0 mm 0 mps 662 mmHg 29%
    18:00 +7°C° 0 mm 0 mps 662 mmHg 30%
    19:00 +7°C° 0 mm 0 mps 662 mmHg 30%
    20:00 +7°C° 0 mm 0 mps 662 mmHg 31%
    21:00 +7°C° 0 mm 0 mps 662 mmHg 31%
    22:00 +6°C° 0 mm 0 mps 662 mmHg 31%
    23:00 +6°C° 0 mm 0 mps 663 mmHg 31%

    Tomorrow, 23 November, Saturday

    Time Temperature Precipitation Wind Pressure Humidity
    00:00 +6°C° 0 mm 0 mps 663 mmHg 31%
    01:00 +6°C° 0 mm 0 mps 662 mmHg 31%
    02:00 +5°C° 0 mm 0 mps 662 mmHg 31%
    03:00 +5°C° 0 mm 0 mps 662 mmHg 31%
    04:00 +5°C° 0 mm 0 mps 662 mmHg 31%
    05:00 +6°C° 0 mm 1 mps 662 mmHg 30%
    06:00 +7°C° 0 mm 1 mps 663 mmHg 29%
    07:00 +7°C° 0 mm 1 mps 663 mmHg 28%
    08:00 +8°C° 0 mm 1 mps 664 mmHg 27%
    09:00 +9°C° 0 mm 1 mps 664 mmHg 24%
    10:00 +11°C° 0 mm 1 mps 664 mmHg 21%
    11:00 +12°C° 0 mm 1 mps 664 mmHg 18%
    12:00 +13°C° 0 mm 1 mps 664 mmHg 18%
    13:00 +13°C° 0 mm 1 mps 664 mmHg 18%
    14:00 +14°C° 0 mm 1 mps 664 mmHg 18%
    15:00 +12°C° 0 mm 1 mps 663 mmHg 21%
    16:00 +11°C° 0 mm 1 mps 663 mmHg 24%
    17:00 +9°C° 0 mm 0 mps 663 mmHg 26%
    18:00 +8°C° 0 mm 0 mps 663 mmHg 27%
    19:00 +8°C° 0 mm 0 mps 663 mmHg 28%
    20:00 +7°C° 0 mm 0 mps 663 mmHg 28%
    21:00 +7°C° 0 mm 0 mps 663 mmHg 28%
    22:00 +6°C° 0 mm 0 mps 663 mmHg 28%
    23:00 +6°C° 0 mm 0 mps 663 mmHg 28%

    Day after tomorrow, 24 November, Sunday

    Time Temperature Precipitation Wind Pressure Humidity
    00:00 +6°C° 0 mm 0 mps 663 mmHg 29%
    01:00 +6°C° 0 mm 0 mps 663 mmHg 29%
    02:00 +6°C° 0 mm 0 mps 663 mmHg 30%
    03:00 +6°C° 0 mm 0 mps 663 mmHg 30%
    04:00 +5°C° 0 mm 0 mps 663 mmHg 30%
    05:00 +5°C° 0 mm 0 mps 663 mmHg 31%
    06:00 +7°C° 0 mm 1 mps 663 mmHg 30%
    07:00 +8°C° 0 mm 1 mps 664 mmHg 30%
    08:00 +8°C° 0 mm 1 mps 664 mmHg 29%
    09:00 +9°C° 0 mm 1 mps 664 mmHg 28%
    10:00 +11°C° 0 mm 1 mps 664 mmHg 26%
    11:00 +12°C° 0 mm 1 mps 664 mmHg 24%
    12:00 +12°C° 0 mm 1 mps 664 mmHg 28%
    13:00 +12°C° 0 mm 1 mps 664 mmHg 31%
    14:00 +13°C° 0 mm 1 mps 664 mmHg 35%
    15:00 +12°C° 0 mm 1 mps 664 mmHg 39%
    16:00 +11°C° 0 mm 1 mps 663 mmHg 43%
    17:00 +10°C° 0 mm 1 mps 663 mmHg 47%
    18:00 +9°C° 0 mm 1 mps 663 mmHg 49%
    19:00 +9°C° 0 mm 1 mps 663 mmHg 52%
    20:00 +8°C° 0 mm 1 mps 663 mmHg 54%
    21:00 +8°C° 0 mm 1 mps 663 mmHg 57%
    22:00 +7°C° 0 mm 1 mps 663 mmHg 59%
    23:00 +7°C° 0 mm 1 mps 663 mmHg 61%

    25 November, Monday

    Time Temperature Precipitation Wind Pressure Humidity
    00:00 +6°C° 0 mm 1 mps 662 mmHg 62%
    01:00 +6°C° 0 mm 1 mps 662 mmHg 64%
    02:00 +6°C° 0 mm 1 mps 662 mmHg 66%
    03:00 +6°C° 0 mm 1 mps 662 mmHg 66%
    04:00 +5°C° 0 mm 1 mps 662 mmHg 66%
    05:00 +5°C° 0 mm 1 mps 662 mmHg 67%
    06:00 +6°C° 0 mm 1 mps 662 mmHg 63%
    07:00 +6°C° 0 mm 1 mps 662 mmHg 60%
    08:00 +7°C° 0 mm 1 mps 662 mmHg 56%
    09:00 +9°C° 0 mm 1 mps 662 mmHg 48%
    10:00 +10°C° 0 mm 1 mps 662 mmHg 40%
    11:00 +10°C° 0 mm 2 mps 662 mmHg 32%
    12:00 +12°C° 0 mm 2 mps 662 mmHg 31%
    13:00 +12°C° 0 mm 2 mps 661 mmHg 29%
    14:00 +13°C° 0 mm 2 mps 661 mmHg 27%
    15:00 +12°C° 0 mm 2 mps 661 mmHg 30%
    16:00 +10°C° 0 mm 2 mps 661 mmHg 32%
    17:00 +10°C° 0 mm 1 mps 661 mmHg 34%
    18:00 +8°C° 0 mm 2 mps 660 mmHg 36%
    19:00 +8°C° 0 mm 2 mps 660 mmHg 38%
    20:00 +8°C° 0 mm 2 mps 660 mmHg 40%
    21:00 +7°C° 0 mm 2 mps 660 mmHg 45%
    22:00 +7°C° 0 mm 2 mps 660 mmHg 50%
    23:00 +8°C° 0 mm 1 mps 660 mmHg 55%

    26 November, Tuesday

    Time Temperature Precipitation Wind Pressure Humidity
    00:00 +8°C° 0 mm 1 mps 660 mmHg 56%
    01:00 +6°C° 0 mm 2 mps 659 mmHg 57%
    02:00 +6°C° 0 mm 2 mps 659 mmHg 58%
    03:00 +6°C° 0 mm 2 mps 659 mmHg 58%
    04:00 +6°C° 0 mm 2 mps 659 mmHg 57%
    05:00 +6°C° 0 mm 2 mps 658 mmHg 57%
    06:00 +6°C° 0 mm 2 mps 659 mmHg 55%
    07:00 +7°C° 0 mm 2 mps 659 mmHg 53%
    08:00 +7°C° 0 mm 2 mps 659 mmHg 52%
    09:00 +8°C° 0 mm 2 mps 659 mmHg 50%
    10:00 +9°C° 0 mm 2 mps 659 mmHg 49%
    11:00 +9°C° 0 mm 2 mps 659 mmHg 47%
    12:00 +9°C° 0 mm 2 mps 659 mmHg 48%
    13:00 +9°C° 0 mm 2 mps 658 mmHg 48%
    14:00 +10°C° 0 mm 2 mps 658 mmHg 49%
    15:00 +9°C° 0 mm 2 mps 658 mmHg 54%
    16:00 +8°C° 0 mm 2 mps 658 mmHg 58%
    17:00 +7°C° 0 mm 2 mps 658 mmHg 63%
    18:00 +7°C° 0 mm 2 mps 658 mmHg 67%
    19:00 +7°C° 0 mm 2 mps 658 mmHg 70%
    20:00 +6°C° 0 mm 2 mps 658 mmHg 74%
    21:00 +6°C° 0.2 mm 2 mps 658 mmHg 77%
    22:00 +7°C° 0.2 mm 1 mps 658 mmHg 80%
    23:00 +7°C° 0.2 mm 1 mps 658 mmHg 82%

    27 November, Wednesday

    Time Temperature Precipitation Wind Pressure Humidity
    00:00 +7°C° 0.2 mm 1 mps 658 mmHg 83%
    01:00 +7°C° 0.2 mm 1 mps 659 mmHg 83%
    02:00 +7°C° 0.2 mm 1 mps 659 mmHg 84%
    03:00 +7°C° 0.2 mm 1 mps 659 mmHg 85%
    04:00 +7°C° 0.2 mm 1 mps 659 mmHg 86%
    05:00 +6°C° 0.2 mm 0 mps 659 mmHg 88%
    06:00 +6°C° 0.1 mm 0 mps 659 mmHg 87%
    07:00 +6°C° 0.1 mm 0 mps 659 mmHg 87%
    08:00 +6°C° 0.1 mm 0 mps 660 mmHg 87%
    09:00 +7°C° 0.1 mm 1 mps 660 mmHg 82%
    10:00 +8°C° 0.1 mm 1 mps 660 mmHg 78%
    11:00 +9°C° 0.1 mm 1 mps 660 mmHg 73%
    12:00 +9°C° 0 mm 1 mps 660 mmHg 69%
    13:00 +10°C° 0 mm 1 mps 660 mmHg 65%
    14:00 +10°C° 0 mm 1 mps 660 mmHg 61%
    15:00 +10°C° 0 mm 1 mps 660 mmHg 63%
    16:00 +9°C° 0 mm 1 mps 661 mmHg 65%
    17:00 +9°C° 0 mm 1 mps 661 mmHg 67%
    18:00 +8°C° 0 mm 1 mps 661 mmHg 70%
    19:00 +7°C° 0 mm 1 mps 661 mmHg 73%
    20:00 +6°C° 0 mm 0 mps 661 mmHg 76%
    21:00 +5°C° 0 mm 0 mps 661 mmHg 78%
    22:00 +5°C° 0 mm 0 mps 661 mmHg 79%
    23:00 +5°C° 0 mm 0 mps 662 mmHg 81%
    Show more